[ ตารางข้อมูล ] [ Min-Max ] [ วันนี้4 ] [ วันนี้2 ] [ เทียบ3วัน A ] [ เทียบ4วัน B ]   

วันนี้2   [ ◀ ช่วงเก่ากว่า ] [ ช่วงที่ 292 ] [ ช่วงใหม่กว่า ▶ ] [ ล่าสุด ]    [ 3 ชั่วโมง ] [ 6 ชั่วโมง ] [ 12 ชั่วโมง ] [ 24 ชั่วโมง ]   วันนี้2

อุณภูมิตู้ Knockdown4529  ราย 3 ชั่วโมง  ที่วัดได้ ในช่วงวันเวลา 01/04/2026 (19:34) ถึง 01/04/2026 (22:34) 
ความชื้นในตู้ Knockdown4529  ราย 3 ชั่วโมง  ที่วัดได้ ในช่วงวันเวลา 01/04/2026 (19:34) ถึง 01/04/2026 (22:34) 

 
DS18B20SHTC3 
IDDate d/m/Y & Timedata1
สูง
data2
ต่ำ
data3
นอก
temp
pcb
hum
pcb
Time
 7934  01/04/2026 22:30:58  29.5  29.5  27.7  29.2  72.9  22:30 
 7933  01/04/2026 22:26:17  29.5  29.6  27.8  29.4  72.8  22:26 
 7932  01/04/2026 22:21:35  29.6  29.6  27.7  29.4  72.8  22:21 
 7931  01/04/2026 22:16:53  29.6  29.6  27.7  29.4  72.8  22:16 
 7930  01/04/2026 22:12:11  29.6  29.6  27.6  29.5  72.9  22:12 
 7929  01/04/2026 22:07:30  29.6  29.6  27.6  29.6  72.9  22:07 
 7928  01/04/2026 22:02:48  29.6  29.7  27.7  29.7  72.9  22:02 
 7927  01/04/2026 21:58:07  29.7  29.7  27.8  29.4  72.8  21:58 
 7926  01/04/2026 21:53:25  29.7  29.8  27.9  29.5  72.7  21:53 
 7925  01/04/2026 21:48:44  29.7  29.8  27.9  29.6  72.7  21:48 
 7924  01/04/2026 21:44:02  29.7  29.8  27.9  29.7  72.8  21:44 
 7923  01/04/2026 21:39:20  29.8  29.8  27.9  29.8  72.8  21:39 
 7922  01/04/2026 21:34:39  29.8  29.9  28.0  29.8  72.7  21:34 
 7921  01/04/2026 21:29:57  29.8  29.9  28.2  29.7  72.7  21:29 
 7920  01/04/2026 21:25:15  29.8  29.9  28.1  29.7  72.6  21:25 
 7919  01/04/2026 21:20:33  29.8  29.9  28.3  29.8  72.6  21:20 
 7918  01/04/2026 21:15:52  29.8  29.9  28.3  29.7  72.5  21:15 
 7917  01/04/2026 21:11:08  29.8  29.9  28.5  29.8  72.6  21:11 
 7916  01/04/2026 21:06:27  29.9  30.0  28.4  29.8  72.6  21:06 
 7915  01/04/2026 21:01:43  29.9  30.0  28.4  30.0  72.7  21:01 
 7914  01/04/2026 20:57:01  29.9  30.1  28.6  29.8  72.6  20:57 
 7913  01/04/2026 20:52:19  30.0  30.1  28.5  29.7  72.5  20:52 
 7912  01/04/2026 20:47:37  30.0  30.1  28.5  29.9  72.5  20:47 
 7911  01/04/2026 20:42:54  30.0  30.1  28.7  30.1  72.6  20:42 

Data every 5 minute.


ใช้เวลาประมวลผล 0.00187 วินาที